Regional Weather Roundup
Issued by NWS

Home | Current Version | Previous Version | Graphics & Text | Print | Product List | Glossary On
Versions: 1 2 3 4 5 6 7 8 9 10 11 12 13 14 15 16 17 18 19 20 21 22 23 24 25 26 27 28 29 30 31 32 33 34 35 36 37 38 39 40 41 42 43 44 45 46 47 48 49 50
621
ASUS44 KJAN 281203
RWRMS

MISSISSIPPI HOURLY WEATHER ROUNDUP
NATIONAL WEATHER SERVICE JACKSON MS
700 AM CDT MON JUL 28 2014

NOTE: "FAIR: INDICATES FEW OR NO CLOUDS BELOW 12,000 FEET WITH NO
SIGNIFICANT WEATHER AND/OR OBSTRUCTIONS TO VISIBILITY.

MSZ001>002-007>008-010>013-018>021-025>028-034>036-281300-
NORTHWEST MISSISSIPPI

CITY           SKY/WX    TMP DP  RH WIND       PRES   REMARKS
CLARKSDALE     FAIR      73  68  83 N9        30.05R
CLEVELAND      FAIR      75  72  89 N7        30.03R
GREENWOOD      CLEAR     78  73  84 N6        30.02R
6HR MIN TEMP:  76; 6HR MAX TEMP:  79;

GREENVILLE     CLOUDY    78  70  76 N6        30.04R
6HR MIN TEMP:  78; 6HR MAX TEMP:  83;

GRENADA        FAIR      75  70  83 N3        30.02R
OLIVE BRANCH   CLEAR     72  66  83 N7        30.06R
OXFORD         FAIR      73  64  73 NE5       30.05R
TUNICA         SUNNY     72  64  78 N7        30.06R
$$

MSZ003>006-009-014>017-022>024-029>033-037>039-281300-
NORTHEAST MISSISSIPPI

CITY           SKY/WX    TMP DP  RH WIND       PRES   REMARKS
BELMONT        FAIR      74  68  83 N5        30.02R
COLUMBUS AFB   MOSUNNY   78  75  91 NW7       29.99R
6HR MIN TEMP:  78; 6HR MAX TEMP:  80;

CORINTH        FAIR      72  64  78 N6        30.03R
GOLDN TRIANGLE MOSUNNY   79  73  83 W6        29.99R
STARKVILLE     FAIR      77  73  88 CALM      30.00R
TUPELO         SUNNY     76  70  82 NE12      30.01R
6HR MIN TEMP:  76; 6HR MAX TEMP:  82;

$$

MSZ040-058-281300-
CENTRAL MISSISSIPPI

CITY           SKY/WX    TMP DP  RH WIND       PRES   REMARKS
JACKSON INTL   MOCLDY    79  76  90 SW5       30.04R
6HR MIN TEMP:  77; 6HR MAX TEMP:  80;

JACKSON HAWKNS MOCLDY    79  74  84 W10       30.05R
6HR MIN TEMP:  78; 6HR MAX TEMP:  81;

MERIDIAN KEY   CLOUDY    77  73  87 SW6       30.02R
6HR MIN TEMP:  74; 6HR MAX TEMP:  79; 6HR PCP:  0.01;

MERIDIAN NAS   MOCLDY    78  73  84 W9        30.01R
6HR MIN TEMP:  76; 6HR MAX TEMP:  79;

RAYMOND        FAIR      77  72  83 W5        30.05R HAZE
VICKSBURG      CLOUDY    78  75  90 NW5       30.07R
6HR MIN TEMP:  74; 6HR MAX TEMP:  78;

$$

MSZ059>079-281300-
SOUTH MISSISSIPPI

CITY           SKY/WX    TMP DP  RH WIND       PRES   REMARKS
BROOKHAVEN     FAIR      77  75  94 SW7       30.09R FOG
COLUMBIA       PTSUNNY   79  75  89 W5        30.06R
HATTIESBURG    PTCLDY    79  75  87 W7        30.06R
6HR MIN TEMP:  78; 6HR MAX TEMP:  82;

MCCOMB         CLEAR     77  74  90 W5        30.08R
6HR MIN TEMP:  76; 6HR MAX TEMP:  79;

NATCHEZ        PTCLDY    77  73  88 SW6       30.09R
6HR MIN TEMP:  75; 6HR MAX TEMP:  79;

PINE BELT      CLEAR     77  72  83 CALM      30.07R
6HR MIN TEMP:  75; 6HR MAX TEMP:  79;

$$

MSZ080>082-281300-
COASTAL MISSISSIPPI

CITY           SKY/WX    TMP DP  RH WIND       PRES   REMARKS
BAY ST LOUIS   CLEAR    N/A N/A N/A CALM      30.07
BILOXI         CLEAR     80  76  89 VRB3      30.06R
6HR MIN TEMP:  80; 6HR MAX TEMP:  83;

PASCAGOULA     PTCLDY    79  76  90 W5        30.06R
6HR MIN TEMP:  79; 6HR MAX TEMP:  81;

GULFPORT       CLEAR     82  76  81 W7        30.06R
6HR MIN TEMP:  81; 6HR MAX TEMP:  85;

$$



USA.gov is the U.S. government's official web portal to all federal, state and local government web resources and services.